Time,TemperatureF,DewpointF,PressureIn,WindDirection,WindDirectionDegrees,WindSpeedMPH,WindSpeedGustMPH,Humidity,HourlyPrecipIn,Conditions,Clouds,dailyrainin,SoftwareType,DateUTC
2013-02-24 00:14:00,48.6,48.1,29.63,NW,315,2.7,-999.0,98,-99.99,,,0.00,Acu-Link.com,2013-02-24 05:14:00,
2013-02-24 00:29:00,48.2,47.7,29.62,West,270,2.2,-999.0,98,-99.99,,,0.00,Acu-Link.com,2013-02-24 05:29:00,
2013-02-24 00:45:00,48.0,47.5,29.63,WSW,247,1.7,-999.0,98,-99.99,,,0.00,Acu-Link.com,2013-02-24 05:45:00,
2013-02-24 01:00:00,48.0,47.5,29.63,NE,45,1.1,-999.0,98,-99.99,,,0.00,Acu-Link.com,2013-02-24 06:00:00,
2013-02-24 01:15:00,48.0,47.5,29.59,SSE,157,1.1,-999.0,98,-99.99,,,0.00,Acu-Link.com,2013-02-24 06:15:00,
2013-02-24 01:30:00,48.0,47.5,29.57,ESE,112,4.2,-999.0,98,-99.99,,,0.01,Acu-Link.com,2013-02-24 06:30:00,
2013-02-24 01:45:00,48.0,47.5,29.58,SE,135,1.7,-999.0,98,-99.99,,,0.01,Acu-Link.com,2013-02-24 06:45:00,
2013-02-24 02:00:00,48.0,47.5,29.58,SSE,157,0.0,-999.0,98,-99.99,,,0.01,Acu-Link.com,2013-02-24 07:00:00,
2013-02-24 02:15:00,48.0,47.5,29.51,ESE,112,3.2,-999.0,98,-99.99,,,0.01,Acu-Link.com,2013-02-24 07:15:00,
2013-02-24 02:30:00,48.2,47.9,29.57,South,180,1.7,-999.0,99,-99.99,,,0.01,Acu-Link.com,2013-02-24 07:30:00,
2013-02-24 02:45:00,48.4,48.1,29.58,WSW,247,0.0,-999.0,99,-99.99,,,0.01,Acu-Link.com,2013-02-24 07:45:00,
2013-02-24 03:01:00,48.2,47.9,29.59,West,270,2.2,-999.0,99,-99.99,,,0.01,Acu-Link.com,2013-02-24 08:01:00,
2013-02-24 03:16:00,47.8,47.5,29.56,NW,315,0.0,-999.0,99,-99.99,,,0.01,Acu-Link.com,2013-02-24 08:16:00,
2013-02-24 03:31:00,47.8,47.5,29.56,West,270,1.7,-999.0,99,-99.99,,,0.01,Acu-Link.com,2013-02-24 08:31:00,
2013-02-24 03:46:00,47.7,47.4,29.55,NNW,337,1.7,-999.0,99,-99.99,,,0.01,Acu-Link.com,2013-02-24 08:46:00,
2013-02-24 04:01:00,47.7,47.4,29.57,North,0,0.0,-999.0,99,-99.99,,,0.01,Acu-Link.com,2013-02-24 09:01:00,
2013-02-24 04:18:00,47.7,47.4,29.57,NE,45,0.0,-999.0,99,-99.99,,,0.01,Acu-Link.com,2013-02-24 09:18:00,
2013-02-24 04:34:00,47.5,47.2,29.57,SSW,202,1.7,-999.0,99,-99.99,,,0.01,Acu-Link.com,2013-02-24 09:34:00,
2013-02-24 04:49:00,47.3,47.0,29.57,SSE,157,0.0,-999.0,99,-99.99,,,0.01,Acu-Link.com,2013-02-24 09:49:00,
2013-02-24 05:04:00,47.3,47.0,29.57,WSW,247,1.7,-999.0,99,-99.99,,,0.01,Acu-Link.com,2013-02-24 10:04:00,
2013-02-24 05:19:00,46.9,46.6,29.58,SW,225,1.7,-999.0,99,-99.99,,,0.01,Acu-Link.com,2013-02-24 10:19:00,
2013-02-24 05:34:00,46.9,46.6,29.60,West,270,0.0,-999.0,99,-99.99,,,0.01,Acu-Link.com,2013-02-24 10:34:00,
2013-02-24 05:49:00,46.9,46.6,29.60,SW,225,1.1,-999.0,99,-99.99,,,0.01,Acu-Link.com,2013-02-24 10:49:00,
2013-02-24 06:04:00,46.9,46.6,29.61,West,270,0.0,-999.0,99,-99.99,,,0.01,Acu-Link.com,2013-02-24 11:04:00,
2013-02-24 06:19:00,46.9,46.6,29.62,West,270,1.7,-999.0,99,-99.99,,,0.01,Acu-Link.com,2013-02-24 11:19:00,
2013-02-24 06:35:00,46.8,46.5,29.62,SSW,202,2.2,-999.0,99,-99.99,,,0.01,Acu-Link.com,2013-02-24 11:35:00,
2013-02-24 06:50:00,46.6,46.3,29.63,ENE,67,2.2,-999.0,99,-99.99,,,0.01,Acu-Link.com,2013-02-24 11:50:00,
2013-02-24 07:05:00,46.6,46.3,29.64,ESE,112,1.7,-999.0,99,-99.99,,,0.01,Acu-Link.com,2013-02-24 12:05:00,
2013-02-24 07:20:00,46.8,46.5,29.65,West,270,3.7,-999.0,99,-99.99,,,0.01,Acu-Link.com,2013-02-24 12:20:00,
2013-02-24 07:35:00,46.9,46.6,29.66,West,270,1.7,-999.0,99,-99.99,,,0.01,Acu-Link.com,2013-02-24 12:35:00,
2013-02-24 07:50:00,46.9,46.6,29.66,ESE,112,1.1,-999.0,99,-99.99,,,0.01,Acu-Link.com,2013-02-24 12:50:00,
2013-02-24 08:06:00,47.1,46.8,29.67,SSE,157,1.7,-999.0,99,-99.99,,,0.01,Acu-Link.com,2013-02-24 13:06:00,
2013-02-24 08:21:00,47.7,47.4,29.67,South,180,2.2,-999.0,99,-99.99,,,0.01,Acu-Link.com,2013-02-24 13:21:00,
2013-02-24 08:36:00,48.2,47.4,29.66,North,0,1.7,-999.0,97,-99.99,,,0.01,Acu-Link.com,2013-02-24 13:36:00,
2013-02-24 08:51:00,49.3,48.2,29.68,NE,45,2.7,-999.0,96,-99.99,,,0.01,Acu-Link.com,2013-02-24 13:51:00,
2013-02-24 09:06:00,50.0,48.1,29.68,ESE,112,1.1,-999.0,93,-99.99,,,0.01,Acu-Link.com,2013-02-24 14:06:00,
2013-02-24 09:21:00,50.5,48.3,29.68,East,90,3.2,-999.0,92,-99.99,,,0.01,Acu-Link.com,2013-02-24 14:21:00,
2013-02-24 09:36:00,51.1,48.9,29.68,NNW,337,2.2,-999.0,92,-99.99,,,0.01,Acu-Link.com,2013-02-24 14:36:00,
2013-02-24 09:52:00,52.0,48.9,29.69,SW,225,2.7,-999.0,89,-99.99,,,0.01,Acu-Link.com,2013-02-24 14:52:00,
2013-02-24 10:07:00,52.7,49.2,29.70,WNW,292,3.2,-999.0,88,-99.99,,,0.01,Acu-Link.com,2013-02-24 15:07:00,
2013-02-24 10:22:00,52.0,48.9,29.70,West,270,3.2,-999.0,89,-99.99,,,0.01,Acu-Link.com,2013-02-24 15:22:00,
2013-02-24 10:37:00,52.3,48.5,29.70,ESE,112,3.2,-999.0,87,-99.99,,,0.01,Acu-Link.com,2013-02-24 15:37:00,
2013-02-24 10:52:00,53.8,49.1,29.70,NE,45,1.7,-999.0,84,-99.99,,,0.01,Acu-Link.com,2013-02-24 15:52:00,
2013-02-24 11:08:00,53.6,49.2,29.70,West,270,2.7,-999.0,85,-99.99,,,0.01,Acu-Link.com,2013-02-24 16:08:00,
2013-02-24 11:24:00,55.9,50.5,29.71,SSE,157,2.7,-999.0,82,-99.99,,,0.01,Acu-Link.com,2013-02-24 16:24:00,
2013-02-24 11:39:00,57.0,50.6,29.69,NE,45,2.7,-999.0,79,-99.99,,,0.01,Acu-Link.com,2013-02-24 16:39:00,
2013-02-24 11:54:00,57.6,49.7,29.70,NE,45,3.2,-999.0,75,-99.99,,,0.01,Acu-Link.com,2013-02-24 16:54:00,
2013-02-24 12:09:00,58.1,50.2,29.71,ESE,112,3.7,-999.0,75,-99.99,,,0.01,Acu-Link.com,2013-02-24 17:09:00,
2013-02-24 12:25:00,59.4,50.4,29.70,WSW,247,3.2,-999.0,72,-99.99,,,0.01,Acu-Link.com,2013-02-24 17:25:00,
2013-02-24 12:40:00,60.4,51.0,29.69,NNE,22,2.7,-999.0,71,-99.99,,,0.01,Acu-Link.com,2013-02-24 17:40:00,
2013-02-24 12:55:00,60.4,51.0,29.68,ESE,112,2.2,-999.0,71,-99.99,,,0.01,Acu-Link.com,2013-02-24 17:55:00,
2013-02-24 13:10:00,59.9,50.1,29.69,WNW,292,2.2,-999.0,70,-99.99,,,0.01,Acu-Link.com,2013-02-24 18:10:00,
2013-02-24 13:25:00,60.4,49.8,29.69,WSW,247,3.7,-999.0,68,-99.99,,,0.01,Acu-Link.com,2013-02-24 18:25:00,
2013-02-24 13:40:00,60.4,49.4,29.68,West,270,2.7,-999.0,67,-99.99,,,0.01,Acu-Link.com,2013-02-24 18:40:00,
2013-02-24 13:55:00,60.8,48.5,29.68,North,0,3.2,-999.0,64,-99.99,,,0.01,Acu-Link.com,2013-02-24 18:55:00,